Virginia Beach, VA

7:55 AM EDT on August 27, 2016 (GMT -0400)
Oceana Naval Air Station

Weather History for KNTU - April, 2012

Change the Weather History Date:

Monday, April 23, 2012

  Actual Average Record
Temperature  
Mean Temperature 52 °F -  
Max Temperature 59 °F 66 °F 86 °F (1999)
Min Temperature 45 °F 47 °F 44 °F (2003)
Degree Days  
Heating Degree Days 14    
Growing Degree Days 2 (Base 50)    
Moisture  
Dew Point 43 °F    
Average Humidity 76    
Maximum Humidity 94    
Minimum Humidity 58    
Precipitation  
Precipitation 0.01 in - - ()
Sea Level Pressure  
Sea Level Pressure 29.46 in    
Wind  
Wind Speed 11 mph (West)    
Max Wind Speed 20 mph    
Max Gust Speed 34 mph    
Visibility 9 miles    
Events Rain    
Averages and records for this station are not official NWS values.
T = Trace of Precipitation, MM = Missing Value Source: NWS Daily Summary

Daily Weather History Graph

Daily Weather History Graph

Search for Another Location

Airport or City:

Trip Planner

Search our weather history database for the weather conditions in past years. The results will help you decide how hot, cold, wet, or windy it might be!

Date:

Astronomy

Apr. 23, 2012 Rise Set
Actual Time 6:19 AM EDT 7:46 PM EDT
Civil Twilight 5:51 AM EDT 8:13 PM EDT
Nautical Twilight 5:19 AM EDT 8:46 PM EDT
Astronomical Twilight 4:44 AM EDT 9:20 PM EDT
Moon 7:31 AM EDT (4/23) 10:10 PM EDT (4/23)
Length of Visible Light 14h 21m
Length of Day
13h 27m
Waxing Crescent, 5% of the Moon is Illuminated
Apr 23
Waxing Crescent
Apr 29
First Quarter
May 5
Full
May 12
Last Quarter
May 20
New

Hourly Weather History & Observations

Time (EDT) Temp. Windchill Dew Point Humidity Pressure Visibility Wind Dir Wind Speed Gust Speed Precip Events Conditions
12:48 AM 50.0 °F - 48.2 °F 94% 29.39 in 4.0 mi WNW 11.5 mph - 0.01 in Rain Light Rain
12:56 AM 50.0 °F - 48.0 °F 93% 29.40 in 3.0 mi WNW 12.7 mph - 0.01 in Rain Light Rain
1:22 AM 50.0 °F - 46.4 °F 87% 29.37 in 4.0 mi WNW 10.4 mph - 0.00 in   Light Drizzle
1:56 AM 50.0 °F - 46.9 °F 89% 29.38 in 7.0 mi WNW 12.7 mph - 0.00 in   Light Drizzle
2:23 AM 50.0 °F - 46.4 °F 87% 29.37 in 10.0 mi West 8.1 mph - 0.00 in   Overcast
2:56 AM 50.0 °F - 46.9 °F 89% 29.37 in 10.0 mi WNW 10.4 mph - 0.00 in   Mostly Cloudy
3:56 AM 48.9 °F - 45.0 °F 86% 29.37 in 10.0 mi WNW 12.7 mph - N/A   Overcast
4:56 AM 48.9 °F - 44.1 °F 83% 29.38 in 10.0 mi WNW 8.1 mph - N/A   Overcast
5:56 AM 48.0 °F - 44.1 °F 86% 29.39 in 10.0 mi WNW 8.1 mph - N/A   Overcast
6:17 AM 48.2 °F - 44.6 °F 87% 29.38 in 10.0 mi WNW 8.1 mph - 0.00 in   Light Drizzle
6:49 AM 48.2 °F - 44.6 °F 87% 29.38 in 10.0 mi WNW 6.9 mph - 0.00 in   Light Drizzle
6:56 AM 48.0 °F - 44.1 °F 86% 29.39 in 10.0 mi WNW 6.9 mph - 0.00 in   Light Drizzle
7:16 AM 48.2 °F - 44.6 °F 87% 29.39 in 10.0 mi West 9.2 mph - 0.00 in   Mostly Cloudy
7:32 AM 48.2 °F - 42.8 °F 82% 29.40 in 10.0 mi West 10.4 mph - 0.00 in   Mostly Cloudy
7:56 AM 48.9 °F - 42.1 °F 77% 29.42 in 10.0 mi WNW 11.5 mph - 0.00 in   Mostly Cloudy
8:41 AM 48.2 °F - 44.6 °F 87% 29.42 in 7.0 mi West 11.5 mph - 0.00 in   Light Drizzle
8:56 AM 48.9 °F - 44.1 °F 83% 29.43 in 10.0 mi West 9.2 mph - 0.00 in   Overcast
9:56 AM 53.1 °F - 43.0 °F 69% 29.43 in 10.0 mi WNW 10.4 mph - N/A   Mostly Cloudy
10:56 AM 52.0 °F - 42.1 °F 69% 29.44 in 10.0 mi Variable 6.9 mph - N/A   Overcast
11:49 AM 53.6 °F - 42.8 °F 67% 29.44 in 10.0 mi West 10.4 mph - N/A   Overcast
11:56 AM 53.1 °F - 42.1 °F 66% 29.45 in 10.0 mi WSW 10.4 mph - N/A   Overcast
12:56 PM 52.0 °F - 42.1 °F 69% 29.46 in 9.0 mi West 9.2 mph - 0.00 in Rain Light Rain
1:12 PM 51.8 °F - 44.6 °F 76% 29.45 in 10.0 mi SW 11.5 mph - 0.00 in   Mostly Cloudy
1:35 PM 53.6 °F - 46.4 °F 77% 29.45 in 10.0 mi WSW 10.4 mph - 0.00 in   Mostly Cloudy
1:56 PM 55.0 °F - 44.1 °F 67% 29.45 in 10.0 mi WSW 13.8 mph - 0.00 in   Mostly Cloudy
2:56 PM 57.9 °F - 43.0 °F 58% 29.44 in 10.0 mi WSW 17.3 mph - N/A   Mostly Cloudy
3:27 PM 53.6 °F - 42.8 °F 67% 29.44 in 7.0 mi WSW 19.6 mph 34.5 mph 0.00 in Rain Light Rain
3:56 PM 51.1 °F - 43.0 °F 74% 29.47 in 10.0 mi WNW 13.8 mph 24.2 mph 0.00 in   Mostly Cloudy
4:20 PM 51.8 °F - 44.6 °F 76% 29.47 in 10.0 mi West 15.0 mph 28.8 mph 0.00 in Rain Light Rain
4:38 PM 53.6 °F - 42.8 °F 67% 29.47 in 10.0 mi WNW 17.3 mph - 0.00 in   Mostly Cloudy
4:56 PM 53.1 °F - 41.0 °F 64% 29.48 in 10.0 mi West 17.3 mph 26.5 mph 0.00 in   Mostly Cloudy
5:56 PM 50.0 °F - 39.0 °F 66% 29.51 in 10.0 mi West 18.4 mph 27.6 mph N/A   Mostly Cloudy
6:50 PM 50.0 °F - 39.2 °F 66% 29.53 in 10.0 mi WNW 16.1 mph 24.2 mph 0.00 in Rain Light Rain
6:56 PM 50.0 °F - 39.0 °F 66% 29.55 in 10.0 mi WNW 16.1 mph 25.3 mph 0.00 in Rain Light Rain
7:11 PM 48.2 °F - 37.4 °F 66% 29.54 in 10.0 mi WNW 10.4 mph - 0.00 in   Mostly Cloudy
7:56 PM 48.9 °F - 36.0 °F 61% 29.58 in 10.0 mi WNW 16.1 mph 24.2 mph 0.00 in   Mostly Cloudy
8:56 PM 48.0 °F - 37.0 °F 66% 29.61 in 10.0 mi West 11.5 mph 19.6 mph N/A   Mostly Cloudy
9:56 PM 46.0 °F 41.0 °F 37.0 °F 71% 29.63 in 10.0 mi West 10.4 mph - N/A   Mostly Cloudy
10:56 PM 46.0 °F 41.4 °F 39.0 °F 76% 29.64 in 10.0 mi WSW 9.2 mph - N/A   Overcast
11:56 PM 45.0 °F 40.1 °F 39.9 °F 82% 29.65 in 10.0 mi WSW 9.2 mph - N/A   Mostly Cloudy